Weather History for PHNG - March, 2014

Change the Weather History Date:

Monday, March 3, 2014

  Actual Average Record
Temperature  
Mean Temperature 74 °F -  
Max Temperature 80 °F 75 °F 80 °F (2011)
Min Temperature 68 °F 67 °F 32 °F (2012)
Cooling Degree Days 10    
Growing Degree Days 24 (Base 50)    
Moisture  
Dew Point 56 °F    
Average Humidity 56    
Maximum Humidity 71    
Minimum Humidity 40    
Precipitation  
Precipitation 0.00 in - - ()
Sea Level Pressure  
Sea Level Pressure 29.88 in    
Wind  
Wind Speed 4 mph (WNW)    
Max Wind Speed 13 mph    
Max Gust Speed 17 mph    
Visibility 8 miles    
Events      
Averages and records for this station are not official NWS values.
T = Trace of Precipitation, MM = Missing Value Source: NWS Daily Summary

Daily Weather History Graph

Daily Weather History Graph

Search for Another Location

Airport or City:

Trip Planner

Search our weather history database for the weather conditions in past years. The results will help you decide how hot, cold, wet, or windy it might be!

Date:

Astronomy

Mar. 03, 2014 Rise Set
Actual Time 6:49 AM HST 6:36 PM HST
Civil Twilight 6:27 AM HST 6:58 PM HST
Nautical Twilight 6:01 AM HST 7:24 PM HST
Astronomical Twilight 5:35 AM HST 7:50 PM HST
Moon 8:30 AM HST (3/3) 9:22 PM HST (3/3)
Length of Visible Light 12h 30m
Length of Day
11h 46m
Waxing Crescent, 9% of the Moon is Illuminated
Mar 3
Waxing Crescent
Mar 8
First Quarter
Mar 16
Full
Mar 23
Last Quarter
Mar 30
New

Hourly Weather History & Observations

Time (HST) Temp. Heat Index Dew Point Humidity Pressure Visibility Wind Dir Wind Speed Gust Speed Precip Events Conditions
12:57 AM 71.6 °F - 60.1 °F 67% 29.86 in 7.0 mi SSE 3.5 mph - N/A   Partly Cloudy
1:57 AM 69.8 °F - 60.1 °F 71% 29.85 in 7.0 mi Calm Calm - N/A   Scattered Clouds
2:57 AM 69.8 °F - 60.1 °F 71% 29.84 in 7.0 mi Calm Calm - N/A   Partly Cloudy
3:57 AM 71.6 °F - 59.0 °F 64% 29.83 in 7.0 mi WNW 5.8 mph - N/A   Clear
4:57 AM 71.6 °F - 59.0 °F 64% 29.82 in 7.0 mi Calm Calm - N/A   Mostly Cloudy
5:57 AM 71.6 °F - 57.9 °F 62% 29.84 in 7.0 mi WSW 5.8 mph - N/A   Mostly Cloudy
6:57 AM 69.8 °F - 57.9 °F 66% 29.87 in 7.0 mi West 4.6 mph - N/A   Mostly Cloudy
7:57 AM 69.8 °F - 57.9 °F 66% 29.88 in 7.0 mi West 6.9 mph - N/A   Clear
8:57 AM 69.8 °F - 59.0 °F 68% 29.90 in 7.0 mi WSW 3.5 mph - N/A   Mostly Cloudy
9:57 AM 73.4 °F - 60.1 °F 63% 29.91 in 7.0 mi NW 3.5 mph - N/A   Mostly Cloudy
10:57 AM 73.4 °F - 59.0 °F 61% 29.90 in 7.0 mi Variable 3.5 mph - N/A   Mostly Cloudy
11:57 AM 78.8 °F - 57.9 °F 49% 29.89 in 7.0 mi West 4.6 mph - N/A   Mostly Cloudy
12:57 PM 78.8 °F - 57.0 °F 47% 29.88 in 7.0 mi West 5.8 mph - N/A   Partly Cloudy
1:57 PM 80.6 °F 80.6 °F 55.9 °F 43% 29.85 in 8.0 mi WNW 5.8 mph - N/A   Clear
2:57 PM 80.6 °F 80.4 °F 54.0 °F 40% 29.83 in 8.0 mi North 5.8 mph - N/A   Scattered Clouds
3:57 PM 80.6 °F 80.4 °F 54.0 °F 40% 29.83 in 8.0 mi NW 9.2 mph - N/A   Clear
4:57 PM 77.0 °F - 52.0 °F 42% 29.86 in 8.0 mi NW 12.7 mph 17.3 mph N/A   Scattered Clouds
5:57 PM 75.2 °F - 51.1 °F 43% 29.87 in 8.0 mi WNW 5.8 mph - N/A   Clear
6:57 PM 75.2 °F - 51.1 °F 43% 29.87 in 9.0 mi NW 4.6 mph - N/A   Clear
7:57 PM 75.2 °F - 52.0 °F 44% 29.90 in 9.0 mi NNW 6.9 mph - N/A   Clear
8:57 PM 73.4 °F - 55.0 °F 52% 29.92 in 8.0 mi WNW 5.8 mph - N/A   Clear
9:57 PM 73.4 °F - 55.0 °F 52% 29.94 in 7.0 mi West 6.9 mph - N/A   Partly Cloudy
10:57 PM 73.4 °F - 55.0 °F 52% 29.94 in 8.0 mi Calm Calm - N/A   Clear
11:57 PM 68.0 °F - 55.0 °F 63% 29.94 in 7.0 mi Calm Calm - N/A   Clear